Tracking 19903 objects as of 17-Oct-2019
HD Live streaming from Space Station
objects crossing your sky now

IRIDIUM 33 DEB

Track IRIDIUM 33 DEB now!
10-day predictions


NORAD ID: 35749
Int'l Code: 1997-051SC
Perigee: 704.6 km
Apogee: 730.8 km
Inclination: 86.4 °
Period: 99.0 minutes
Semi major axis: 7088 km
RCS: 0.0016 m2 (small)
Launch date: September 14, 1997
Source: United States (US)
Launch site: TYURATAM MISSILE AND SPACE COMPLEX (TTMTR)

Note: This is SATELLITE DEBRIS
aabbcc
Your satellite tracking list
Your tracking list is empty




NASA's NSSDC Master Catalog

Two Line Element Set (TLE):
1 35749U 97051SC  19287.66836770  .00001187  00000-0  27237-3 0  9991
2 35749  86.3759 261.0331 0018449  85.4574 274.8740 14.54624283541824
Source of the keplerian elements: AFSPC